Location: Branche des Alpilles
(43.6087°N, 4.6976°E)
Time: 05:19:37
(UTC+00:00)

Cosmos 1933 Rocket - Pass Details

Date: 30 November 2020
Orbit: 605 x 631 km, 82.5° (Epoch: 24 January)

Event Time Altitude Azimuth Distance (km) Brightness Sun altitude
Rises 17:20:05 0° 357° (N) 2,935 6.9 -13.1°
Reaches altitude 10° 17:22:26 10° 5° (N) 2,022 6.0 -13.5°
Maximum altitude 17:26:43 43° 77° (ENE) 884 3.9 -14.2°
Drops below altitude 10° 17:30:58 10° 150° (SSE) 2,000 6.0 -15.0°
Sets 17:33:16 0° 157° (SSE) 2,900 6.9 -15.4°
